Погода в Гюндогане

Турция     36°52′39″N   37°32′48″E
темп.,
°C
ветер,
м/с
пор.,
м/с
влажн.,
%
обл.,
%
осадки,
мм/ч
давл.,
гПа
погр.,
м
28 февраля, вс
вс2800:00+6зюз01680 0.0 101822
03:00+5с11690 0.0 101722
06:00+4св11770 0.0 101722
09:00+9ссв11560 0.0 101797
12:00+12юв22500 0.0 10161071
15:00+14ююз33461 0.0 10141619
18:00+11юз345535 0.0 101445
21:00+9з335919 0.0 101423
1 марта, пн
пн100:00+8зсз23610 0.0 101623
03:00+6сз23650 0.0 101522
06:00+5сз34800 0.0 101641
09:00+8ссз676533 0.0 1017405
12:00+10ссв3258100 0.0 1017893
15:00+11св336188 0.4 1016972
18:00+9всв457277 0.8 1017277
21:00+6св457958 0.8 1019111
2 марта, вт
вт200:00+5ссв358286 0.0 1020172
03:00+6с347993 0.0 1020103
06:00+4с336080 0.0 102124
09:00+7ссв465046 0.0 1021307
12:00+10всв555238 0.0 1020691
15:00+11всв435144 0.0 10181143
18:00+10св346160 0.1 1018208
21:00+8вюв137580 0.4 1020118
3 марта, ср
ср300:00+7св5788100 2.1 1020411
03:00+7св588597 2.2 1020333
06:00+6св598178 0.0 1020236
09:00+7св697351 0.3 1020378
12:00+10св456796 0.4 1019481
15:00+13всв445757 0.5 10161150
18:00+10всв45700 0.7 1016105
21:00+9св337241 1.1 101724
4 марта, чт
чт400:00+9ссв566985 0.1 101793
03:00+7с576446 0.1 1017110
06:00+6с45590 0.0 101754
09:00+8ссв45450 0.0 1018247
12:00+12ссв33390 0.0 1017836
15:00+14ссз45280 0.0 10161580
18:00+10сз23410 0.0 101622
21:00+8сз23500 0.0 101923